Volver al catálogo

SL-3 DEB

ActivoPO
NORAD 14632·DEBRIS·🇷🇺 Russia

Lanzado Jan 6, 1977 desde Plesetsk Cosmodrome

Loading…

Próximos Pases (próximas 24 horas)

TLE

ActualizadoSource: Space-Track

Época: Sep 14, 2026, 13:06 UTC

1 14632U 77002E   26257.54592193  .00000023  00000-0  68584-5 0  9993
2 14632  81.2726  97.4270 0053035  37.2533 353.4889 14.00799539360985

Sigue SL-3 DEB en tiempo real con AllMySat

Download on the App Store